When you browse on this site, cookies collect data to enhance your experience and personalize the content and advertising you see.
Visit our Privacy Policy to learn more. By continuing to use the site, you agree to this use of cookies and data.
  • In Schweiz
  • Länderverzeichnis
  • Für 7 Tage
  • Wassertemperatur
  • Satellitenkarten
  • Wetterkarte
  • Widgets
  • user-avatar
    Anmelden

    Stündliche Wetter Biskira

    Heute, 24 Mai, Freitag

    Zeit Temperatur Niederschläge Wind Luftdruck Luftfeuchtigkeit
    00:00 +29°C° 0 mm 4 m/S 751 mmHg 32%
    01:00 +29°C° 0 mm 4 m/S 751 mmHg 33%
    02:00 +28°C° 0 mm 5 m/S 751 mmHg 34%
    03:00 +28°C° 0 mm 5 m/S 751 mmHg 34%
    04:00 +27°C° 0.3 mm 6 m/S 751 mmHg 36%
    05:00 +27°C° 0.3 mm 7 m/S 750 mmHg 38%
    06:00 +26°C° 0.3 mm 8 m/S 750 mmHg 39%
    07:00 +28°C° 0.1 mm 8 m/S 750 mmHg 36%
    08:00 +29°C° 0.1 mm 9 m/S 750 mmHg 33%
    09:00 +31°C° 0.1 mm 9 m/S 750 mmHg 30%
    10:00 +32°C° 0 mm 9 m/S 750 mmHg 29%
    11:00 +33°C° 0 mm 9 m/S 749 mmHg 27%
    12:00 +34°C° 0 mm 8 m/S 749 mmHg 25%
    13:00 +34°C° 0.3 mm 8 m/S 748 mmHg 25%
    14:00 +35°C° 0.3 mm 8 m/S 747 mmHg 25%
    15:00 +35°C° 0.3 mm 8 m/S 747 mmHg 25%
    16:00 +34°C° 0.9 mm 9 m/S 747 mmHg 28%
    17:00 +33°C° 0.9 mm 9 m/S 746 mmHg 30%
    18:00 +32°C° 0.9 mm 9 m/S 746 mmHg 33%
    19:00 +31°C° 0.1 mm 9 m/S 746 mmHg 37%
    20:00 +29°C° 0.1 mm 9 m/S 747 mmHg 41%
    21:00 +28°C° 0.1 mm 8 m/S 747 mmHg 46%
    22:00 +28°C° 0.4 mm 7 m/S 747 mmHg 46%
    23:00 +28°C° 0.4 mm 6 m/S 747 mmHg 47%

    Morgen, 25 Mai, Samstag

    Zeit Temperatur Niederschläge Wind Luftdruck Luftfeuchtigkeit
    00:00 +28°C° 0.4 mm 5 m/S 747 mmHg 48%
    01:00 +27°C° 1.5 mm 4 m/S 746 mmHg 51%
    02:00 +26°C° 1.5 mm 3 m/S 746 mmHg 55%
    03:00 +25°C° 1.5 mm 2 m/S 746 mmHg 59%
    04:00 +25°C° 0.6 mm 2 m/S 746 mmHg 60%
    05:00 +25°C° 0.6 mm 3 m/S 746 mmHg 60%
    06:00 +25°C° 0.6 mm 3 m/S 747 mmHg 61%
    07:00 +25°C° 0.3 mm 3 m/S 747 mmHg 59%
    08:00 +25°C° 0.3 mm 3 m/S 747 mmHg 57%
    09:00 +26°C° 0.3 mm 3 m/S 747 mmHg 56%
    10:00 +26°C° 0.1 mm 3 m/S 747 mmHg 51%
    11:00 +27°C° 0.1 mm 2 m/S 747 mmHg 47%
    12:00 +27°C° 0.1 mm 2 m/S 747 mmHg 42%
    13:00 +28°C° 0.1 mm 2 m/S 746 mmHg 41%
    14:00 +28°C° 0.1 mm 1 m/S 746 mmHg 40%
    15:00 +28°C° 0.1 mm 1 m/S 746 mmHg 38%
    16:00 +28°C° 0.1 mm 2 m/S 746 mmHg 38%
    17:00 +28°C° 0.1 mm 3 m/S 746 mmHg 39%
    18:00 +28°C° 0.1 mm 3 m/S 746 mmHg 39%
    19:00 +27°C° 0.1 mm 4 m/S 747 mmHg 42%
    20:00 +26°C° 0.1 mm 4 m/S 747 mmHg 44%
    21:00 +25°C° 0.1 mm 4 m/S 748 mmHg 47%
    22:00 +25°C° 0.4 mm 5 m/S 748 mmHg 48%
    23:00 +23°C° 0.4 mm 5 m/S 748 mmHg 48%

    übermorgen, 26 Mai, Sonntag

    Zeit Temperatur Niederschläge Wind Luftdruck Luftfeuchtigkeit
    00:00 +22°C° 0.4 mm 5 m/S 748 mmHg 48%
    01:00 +22°C° 0 mm 5 m/S 748 mmHg 49%
    02:00 +21°C° 0 mm 5 m/S 748 mmHg 49%
    03:00 +21°C° 0 mm 5 m/S 748 mmHg 50%
    04:00 +21°C° 0 mm 5 m/S 748 mmHg 49%
    05:00 +21°C° 0 mm 6 m/S 748 mmHg 49%
    06:00 +21°C° 0 mm 6 m/S 748 mmHg 48%
    07:00 +22°C° 0 mm 6 m/S 748 mmHg 43%
    08:00 +23°C° 0 mm 6 m/S 748 mmHg 38%
    09:00 +26°C° 0 mm 6 m/S 749 mmHg 34%
    10:00 +27°C° 0 mm 6 m/S 749 mmHg 32%
    11:00 +28°C° 0 mm 7 m/S 749 mmHg 30%
    12:00 +29°C° 0 mm 7 m/S 749 mmHg 28%
    13:00 +29°C° 0 mm 7 m/S 748 mmHg 28%
    14:00 +29°C° 0 mm 8 m/S 748 mmHg 28%
    15:00 +29°C° 0 mm 8 m/S 748 mmHg 29%
    16:00 +28°C° 0 mm 8 m/S 748 mmHg 31%
    17:00 +27°C° 0 mm 8 m/S 748 mmHg 33%
    18:00 +26°C° 0 mm 8 m/S 749 mmHg 35%
    19:00 +26°C° 0 mm 8 m/S 749 mmHg 37%
    20:00 +24°C° 0 mm 8 m/S 750 mmHg 39%
    21:00 +23°C° 0 mm 7 m/S 750 mmHg 41%
    22:00 +22°C° 0 mm 7 m/S 750 mmHg 43%
    23:00 +22°C° 0 mm 7 m/S 750 mmHg 45%

    27 Mai, Montag

    Zeit Temperatur Niederschläge Wind Luftdruck Luftfeuchtigkeit
    00:00 +21°C° 0 mm 6 m/S 750 mmHg 47%
    01:00 +21°C° 0 mm 6 m/S 750 mmHg 49%
    02:00 +20°C° 0 mm 6 m/S 750 mmHg 50%
    03:00 +20°C° 0 mm 6 m/S 750 mmHg 52%
    04:00 +20°C° 0 mm 6 m/S 750 mmHg 52%
    05:00 +20°C° 0 mm 6 m/S 750 mmHg 52%
    06:00 +20°C° 0 mm 6 m/S 750 mmHg 52%
    07:00 +22°C° 0 mm 6 m/S 750 mmHg 47%
    08:00 +23°C° 0 mm 5 m/S 750 mmHg 43%
    09:00 +25°C° 0 mm 4 m/S 751 mmHg 39%
    10:00 +26°C° 0 mm 4 m/S 750 mmHg 36%
    11:00 +27°C° 0 mm 4 m/S 750 mmHg 33%
    12:00 +28°C° 0 mm 4 m/S 750 mmHg 30%
    13:00 +29°C° 0 mm 4 m/S 750 mmHg 29%
    14:00 +29°C° 0 mm 4 m/S 749 mmHg 28%
    15:00 +30°C° 0 mm 5 m/S 749 mmHg 27%
    16:00 +29°C° 0 mm 5 m/S 749 mmHg 28%
    17:00 +29°C° 0 mm 5 m/S 749 mmHg 29%
    18:00 +29°C° 0 mm 5 m/S 749 mmHg 29%
    19:00 +28°C° 0 mm 5 m/S 750 mmHg 32%
    20:00 +28°C° 0 mm 4 m/S 750 mmHg 34%
    21:00 +27°C° 0 mm 4 m/S 751 mmHg 37%
    22:00 +27°C° 0 mm 3 m/S 751 mmHg 39%
    23:00 +26°C° 0 mm 3 m/S 751 mmHg 41%

    28 Mai, Dienstag

    Zeit Temperatur Niederschläge Wind Luftdruck Luftfeuchtigkeit
    00:00 +25°C° 0 mm 2 m/S 751 mmHg 43%
    01:00 +25°C° 0 mm 2 m/S 751 mmHg 44%
    02:00 +24°C° 0 mm 2 m/S 750 mmHg 46%
    03:00 +24°C° 0 mm 1 m/S 750 mmHg 48%
    04:00 +24°C° 0 mm 1 m/S 750 mmHg 45%
    05:00 +25°C° 0 mm 1 m/S 751 mmHg 43%
    06:00 +25°C° 0 mm 1 m/S 751 mmHg 41%
    07:00 +26°C° 0 mm 1 m/S 751 mmHg 38%
    08:00 +27°C° 0 mm 1 m/S 751 mmHg 34%
    09:00 +28°C° 0 mm 1 m/S 751 mmHg 30%
    10:00 +29°C° 0 mm 2 m/S 751 mmHg 28%
    11:00 +30°C° 0 mm 2 m/S 750 mmHg 27%
    12:00 +31°C° 0 mm 3 m/S 750 mmHg 25%
    13:00 +31°C° 0 mm 3 m/S 749 mmHg 24%
    14:00 +33°C° 0 mm 3 m/S 749 mmHg 22%
    15:00 +34°C° 0 mm 2 m/S 748 mmHg 21%
    16:00 +34°C° 0 mm 3 m/S 748 mmHg 21%
    17:00 +34°C° 0 mm 4 m/S 748 mmHg 21%
    18:00 +34°C° 0 mm 5 m/S 748 mmHg 21%
    19:00 +33°C° 0 mm 5 m/S 748 mmHg 22%
    20:00 +32°C° 0 mm 6 m/S 749 mmHg 24%
    21:00 +30°C° 0 mm 6 m/S 749 mmHg 26%
    22:00 +30°C° 0 mm 6 m/S 749 mmHg 27%
    23:00 +29°C° 0 mm 6 m/S 749 mmHg 28%

    29 Mai, Mittwoch

    Zeit Temperatur Niederschläge Wind Luftdruck Luftfeuchtigkeit
    00:00 +29°C° 0 mm 6 m/S 749 mmHg 29%
    01:00 +28°C° 0.1 mm 6 m/S 749 mmHg 29%
    02:00 +28°C° 0.1 mm 6 m/S 749 mmHg 30%
    03:00 +27°C° 0.1 mm 6 m/S 749 mmHg 31%
    04:00 +28°C° 0 mm 7 m/S 749 mmHg 30%
    05:00 +28°C° 0 mm 7 m/S 749 mmHg 29%
    06:00 +28°C° 0 mm 7 m/S 749 mmHg 28%
    07:00 +29°C° 0 mm 7 m/S 749 mmHg 26%
    08:00 +32°C° 0 mm 7 m/S 750 mmHg 24%
    09:00 +33°C° 0 mm 7 m/S 750 mmHg 21%
    10:00 +34°C° 0 mm 6 m/S 750 mmHg 20%
    11:00 +35°C° 0 mm 5 m/S 750 mmHg 18%
    12:00 +36°C° 0 mm 4 m/S 750 mmHg 16%
    13:00 +37°C° 0 mm 4 m/S 749 mmHg 16%
    14:00 +37°C° 0 mm 3 m/S 749 mmHg 16%
    15:00 +38°C° 0 mm 3 m/S 749 mmHg 16%
    16:00 +37°C° 0 mm 4 m/S 749 mmHg 20%
    17:00 +36°C° 0 mm 5 m/S 749 mmHg 24%
    18:00 +35°C° 0 mm 6 m/S 750 mmHg 27%
    19:00 +34°C° 0 mm 5 m/S 750 mmHg 29%
    20:00 +33°C° 0 mm 4 m/S 751 mmHg 31%
    21:00 +33°C° 0 mm 3 m/S 752 mmHg 34%
    22:00 +31°C° 0.1 mm 3 m/S 752 mmHg 37%
    23:00 +30°C° 0.1 mm 4 m/S 752 mmHg 41%
    Mehr zeigen